Prestwick, United Kingdom

6:34 AM GMT on November 23, 2017 (GMT +0000)
Prestwick

Weather History for EGPK - December, 2012

Change the Weather History Date:

Saturday, December 15, 2012

  Actual Average Record
Temperature  
Mean Temperature 44 °F -  
Max Temperature 46 °F 44 °F 55 °F (2004)
Min Temperature 41 °F 34 °F 24 °F (2010)
Degree Days  
Heating Degree Days 22    
Moisture  
Dew Point 42 °F    
Average Humidity 89    
Maximum Humidity 93    
Minimum Humidity 87    
Precipitation  
Precipitation 0.00 in - - ()
Sea Level Pressure  
Sea Level Pressure 28.99 in    
Wind  
Wind Speed 11 mph ()    
Max Wind Speed 17 mph    
Max Gust Speed -    
Visibility 6.2 miles    
Events Rain    
Averages and records for this station are not official NWS values.
T = Trace of Precipitation, MM = Missing Value Source: Averaged Metar Reports

Daily Weather History Graph

Daily Weather History Graph

Search for Another Location

Airport or City:

Trip Planner

Search our weather history database for the weather conditions in past years. The results will help you decide how hot, cold, wet, or windy it might be!

Date:

Astronomy

Dec. 15, 2012 Rise Set
Actual Time 8:40 AM GMT 3:46 PM GMT
Civil Twilight 7:54 AM GMT 4:32 PM GMT
Nautical Twilight 7:05 AM GMT 5:21 PM GMT
Astronomical Twilight 6:20 AM GMT 6:06 PM GMT
Moon 10:04 AM GMT (12/15) 6:55 PM GMT (12/15)
Length of Visible Light 8h 38m
Length of Day
7h 06m
Waxing Crescent, 7% of the Moon is Illuminated
Dec 15
Waxing Crescent
Dec 20
First Quarter
Dec 28
Full
Jan 5
Last Quarter
Jan 11
New

Hourly Weather History & Observations

Time (GMT) Temp. Windchill Dew Point Humidity Pressure Visibility Wind Dir Wind Speed Gust Speed Precip Events Conditions
12:50 AM 41.0 °F 34.3 °F 39.2 °F 93% 28.74 in 6.2 mi WSW 11.5 mph - N/A Rain Light Rain
1:50 AM 42.8 °F 36.6 °F 41.0 °F 93% 28.74 in 6.2 mi West 11.5 mph - N/A Rain Light Rain
2:50 AM 42.8 °F 35.8 °F 41.0 °F 93% 28.74 in 6.2 mi West 13.8 mph - N/A Rain Light Rain
3:50 AM 44.6 °F 38.8 °F 42.8 °F 93% 28.77 in 6.2 mi West 11.5 mph - N/A   Scattered Clouds
4:50 AM 44.6 °F 37.4 °F 42.8 °F 93% 28.80 in 6.2 mi WSW 16.1 mph - N/A Rain Light Rain
5:50 AM 46.4 °F 39.5 °F 42.8 °F 87% 28.80 in 6.2 mi SW 17.3 mph - N/A Rain Light Rain
6:20 AM 46.4 °F 39.5 °F 42.8 °F 87% 28.82 in 6.2 mi SW 17.3 mph - N/A   Mostly Cloudy
6:50 AM 44.6 °F 37.4 °F 42.8 °F 93% 28.82 in 6.2 mi SW 16.1 mph - N/A   Scattered Clouds
7:20 AM 44.6 °F 37.8 °F 42.8 °F 93% 28.85 in 6.2 mi SSW 15.0 mph - N/A Rain Light Rain
7:50 AM 44.6 °F 38.8 °F 42.8 °F 93% 28.85 in 6.2 mi SSW 11.5 mph - N/A   Mostly Cloudy
8:20 AM 44.6 °F 38.8 °F 41.0 °F 87% 28.88 in 6.2 mi SSW 11.5 mph - N/A   Mostly Cloudy
8:50 AM 44.6 °F 39.2 °F 42.8 °F 93% 28.88 in 6.2 mi SSW 10.4 mph - N/A   Mostly Cloudy
9:20 AM 44.6 °F 38.1 °F 42.8 °F 93% 28.91 in 6.2 mi SSW 13.8 mph - N/A   Mostly Cloudy
9:50 AM 44.6 °F 37.8 °F 42.8 °F 93% 28.91 in 6.2 mi SSW 15.0 mph - N/A   Mostly Cloudy
10:20 AM 44.6 °F 38.1 °F 42.8 °F 93% 28.94 in 6.2 mi SSW 13.8 mph - N/A   Mostly Cloudy
10:50 AM 46.4 °F 40.4 °F 42.8 °F 87% 28.94 in 6.2 mi SW 13.8 mph - N/A   Mostly Cloudy
11:20 AM 46.4 °F 40.1 °F 42.8 °F 87% 28.94 in 6.2 mi SW 15.0 mph - N/A   Mostly Cloudy
11:50 AM 46.4 °F 39.5 °F 42.8 °F 87% 28.97 in 6.2 mi SW 17.3 mph - N/A   Mostly Cloudy
12:20 PM 46.4 °F 40.7 °F 42.8 °F 87% 28.97 in 6.2 mi SW 12.7 mph - N/A   Mostly Cloudy
12:50 PM 46.4 °F 39.8 °F 42.8 °F 87% 28.97 in 6.2 mi SW 16.1 mph - N/A   Mostly Cloudy
1:20 PM 46.4 °F 40.1 °F 42.8 °F 87% 29.00 in 6.2 mi SW 15.0 mph - N/A   Mostly Cloudy
1:50 PM 46.4 °F 41.5 °F 42.8 °F 87% 29.00 in 6.2 mi SSW 10.4 mph - N/A   Mostly Cloudy
2:20 PM 46.4 °F 41.9 °F 42.8 °F 87% 29.00 in 6.2 mi SSW 9.2 mph - N/A   Mostly Cloudy
2:50 PM 46.4 °F 41.1 °F 42.8 °F 87% 29.03 in 6.2 mi SSW 11.5 mph - N/A   Scattered Clouds
3:20 PM 46.4 °F 41.5 °F 42.8 °F 87% 29.03 in 6.2 mi SSW 10.4 mph - N/A   Scattered Clouds
3:50 PM 46.4 °F 40.7 °F 42.8 °F 87% 29.03 in 6.2 mi SSW 12.7 mph - N/A   Scattered Clouds
4:20 PM 46.4 °F 41.5 °F 42.8 °F 87% 29.06 in 6.2 mi SSW 10.4 mph - N/A   Mostly Cloudy
4:50 PM 46.4 °F 42.4 °F 42.8 °F 87% 29.06 in 6.2 mi SSW 8.1 mph - N/A   Scattered Clouds
5:20 PM 46.4 °F 42.4 °F 42.8 °F 87% 29.09 in 6.2 mi SSW 8.1 mph - N/A   Scattered Clouds
5:50 PM 46.4 °F 42.9 °F 42.8 °F 87% 29.09 in 6.2 mi South 6.9 mph - N/A   Scattered Clouds
6:20 PM 46.4 °F 42.9 °F 42.8 °F 87% 29.12 in 6.2 mi South 6.9 mph - N/A   Mostly Cloudy
6:50 PM 46.4 °F 42.4 °F 42.8 °F 87% 29.12 in 6.2 mi SSW 8.1 mph - N/A   Mostly Cloudy
7:20 PM 46.4 °F 41.9 °F 42.8 °F 87% 29.12 in 6.2 mi SSW 9.2 mph - N/A   Scattered Clouds
7:50 PM 46.4 °F 42.9 °F 42.8 °F 87% 29.12 in 6.2 mi South 6.9 mph - N/A   Scattered Clouds
8:20 PM 46.4 °F 42.9 °F 42.8 °F 87% 29.15 in 6.2 mi South 6.9 mph - N/A   Mostly Cloudy
8:50 PM 44.6 °F 39.7 °F 41.0 °F 87% 29.15 in 6.2 mi South 9.2 mph - N/A   Scattered Clouds
9:20 PM 44.6 °F 40.7 °F 41.0 °F 87% 29.18 in 6.2 mi South 6.9 mph - N/A   Scattered Clouds
9:50 PM 44.6 °F 40.2 °F 41.0 °F 87% 29.18 in 6.2 mi South 8.1 mph - N/A   Scattered Clouds
10:20 PM 44.6 °F 40.2 °F 41.0 °F 87% 29.18 in 6.2 mi SSW 8.1 mph - N/A   Scattered Clouds
10:50 PM 42.8 °F 39.3 °F 41.0 °F 93% 29.21 in 6.2 mi SSW 5.8 mph - N/A   Scattered Clouds
11:20 PM 42.8 °F 38.6 °F 39.2 °F 87% 29.21 in 6.2 mi South 6.9 mph - N/A   Scattered Clouds
11:50 PM 41.0 °F 38.0 °F 39.2 °F 93% 29.21 in 6.2 mi South 4.6 mph - N/A   Partly Cloudy